Find Orbital Reflector

NORAD ID: 43771 Int'l Des: NNA 2018-099 Owner: NVART Country: US operational
LEOCIRCULARRETROGRADESSO

現在のビュー

3D地球を読み込み中...

About Orbital Reflector

Orbital Reflector (NORAD 43771) is a satellite launched Dec 3, 2018 by NVART of US. It operates in LEO, CIRCULAR, RETROGRADE, SSO orbit with a mass of 3.20 kg.

次回通過

Passes for default location (London). Set your location on the main map for personalized predictions.

高度履歴

Loading altitude history...

軌道要素

1 43771U 18099P 26195.11468850 .00011739 00000-0 34406-3 0 9996
2 43771 97.4236 258.9293 0008998 178.0265 182.1015 15.35318132417671
Epoch: Jul 14, 2026 • Age: 7 hours

現在のステータス

高度 457.0 km
遠地点 / 近地点 N/A
速度 7.64 km/s
衛星直下点 -0.81°S, 0.07°W
打ち上げ日 Dec 3, 2018
運用期間 7.6 years
タイプ other

技術仕様

分類 Payload
質量 3.20 kg
乾燥質量 3.20 kg
総質量 3.20 kg
長さ 0.30 m
直径 0.10 m
スパン 30.00 m
形状 Box+4 pan+balloon
製造者 GWEST
バスタイプ Cubesat 3U
フェーズステータス In Orbit
所有者/国 NVART/US

Most Searched